This is the latest recevied weather packets stored in our database for station/object NK7I. If no packets are shown the sender has not sent any weather packets the latest 10 day(s).
| Time | Temp. | Humidity | Pressure | Rain* | Wind** | Luminosity | Snow |
|---|---|---|---|---|---|---|---|
| 1777563382 | 9.44° C | 69% | 1024.5 hPa | 0 mm | - | 573 W/m² | - |
| 1777563082 | 9.44° C | 74% | 1024.5 hPa | 0 mm | - | 524 W/m² | - |
| 1777562782 | 8.89° C | 77% | 1024.6 hPa | 0 mm | - | 468 W/m² | - |
| 1777562483 | 8.33° C | 82% | 1024.5 hPa | 0 mm | - | 473 W/m² | - |
| 1777562182 | 7.78° C | 79% | 1024.7 hPa | 0 mm | - | 529 W/m² | - |
| 1777561882 | 7.22° C | 82% | 1024.7 hPa | 0 mm | - | 563 W/m² | - |
| 1777561582 | 6.67° C | 83% | 1024.7 hPa | 0 mm | - | 557 W/m² | - |
| 1777561283 | 6.11° C | 86% | 1024.9 hPa | 0 mm | - | 476 W/m² | - |
| 1777560983 | 5.56° C | 86% | 1024.9 hPa | 0 mm | - | 504 W/m² | - |
| 1777560682 | 5° C | 88% | 1024.9 hPa | 0 mm | - | 471 W/m² | - |
| 1777560382 | 4.44° C | 89% | 1024.9 hPa | 0 mm | - | 438 W/m² | - |
| 1777560082 | 4.44° C | 89% | 1024.9 hPa | 0 mm | - | 295 W/m² | - |
| 1777559783 | 3.89° C | 89% | 1025.1 hPa | 0 mm | - | 77 W/m² | - |
| 1777559482 | 3.89° C | 90% | 1025.1 hPa | 0 mm | - | 114 W/m² | - |
| 1777559183 | 3.33° C | 90% | 1025.1 hPa | 0 mm | - | 53 W/m² | - |
| 1777558883 | 3.33° C | 90% | 1025.1 hPa | 0 mm | - | 111 W/m² | - |
| 1777558582 | 3.33° C | 91% | 1025 hPa | 0 mm | - | 95 W/m² | - |
| 1777558283 | 2.78° C | 91% | 1025 hPa | 0 mm | - | 51 W/m² | - |
| 1777557982 | 2.78° C | 91% | 1024.9 hPa | 0 mm | - | 46 W/m² | - |
| 1777557682 | 2.78° C | 90% | 1025 hPa | 0 mm | - | 37 W/m² | - |
| 1777557382 | 2.78° C | 90% | 1024.9 hPa | 0 mm | - | 35 W/m² | - |
| 1777557082 | 2.22° C | 90% | 1025 hPa | 0 mm | - | 35 W/m² | - |
| 1777556783 | 2.22° C | 90% | 1025 hPa | 0 mm | - | 33 W/m² | - |
| 1777556482 | 2.22° C | 90% | 1025 hPa | 0 mm | - | 32 W/m² | - |
| 1777556182 | 2.22° C | 90% | 1024.8 hPa | 0 mm | - | 32 W/m² | - |
* Rain latest hour (hover to see other rain measurements)
** Current wind speed in m/s (hover to see current wind gust speed)